CW2157 Weather Reports


time (UTC)temp
F
wind
direction
speed
knots
gust
knots
rain 1hr
in
rain 24hr
in
rain mn
in
humidity
%
barometer
mb
20200531081705 66 330 6.1 13.0 0.00 0.00 0.00 57 1015.5
20200531081205 66 338 7.0 13.0 0.00 0.00 0.00 56 1015.4
20200531080705 66 339 7.8 17.4 0.00 0.00 0.00 58 1015.4
20200531080204 66 341 6.1 12.2 0.00 0.00 0.00 60 1015.2
20200531075704 66 316 5.2 10.4 0.00 0.00 0.00 59 1015.2
20200531075204 67 344 6.1 12.2 0.00 0.00 0.00 58 1015.1
20200531074705 67 331 4.3 11.3 0.00 0.00 0.00 60 1015.0
20200531074204 67 320 6.1 12.2 0.00 0.00 0.00 59 1014.8
20200531073705 67 347 4.3 11.3 0.00 0.00 0.00 58 1014.9
20200531073205 67 329 7.8 15.6 0.00 0.00 0.00 58 1014.7
20200531072705 67 346 4.3 10.4 0.00 0.00 0.00 60 1014.7
20200531072205 68 327 5.2 12.2 0.00 0.00 0.00 59 1014.7
20200531071704 68 345 6.1 11.3 0.00 0.00 0.00 59 1014.7
20200531071204 68 328 7.0 17.4 0.00 0.00 0.00 59 1014.7
20200531070705 68 327 4.3 8.7 0.00 0.00 0.00 60 1014.7
20200531070204 68 333 6.1 12.2 0.00 0.00 0.00 60 1014.7
20200531065704 68 342 7.8 14.8 0.00 0.00 0.00 61 1014.7
20200531065205 68 347 8.7 15.6 0.00 0.00 0.00 61 1014.6
20200531064705 69 338 6.1 10.4 0.00 0.00 0.00 61 1014.6
20200531064204 69 349 5.2 13.0 0.00 0.00 0.00 62 1014.7
20200531063704 69 339 6.1 14.8 0.00 0.00 0.00 61 1014.6
20200531063204 69 334 6.1 14.8 0.00 0.00 0.00 60 1014.5
20200531062704 69 331 7.8 13.9 0.00 0.00 0.00 61 1014.4
20200531062204 69 352 6.1 13.0 0.00 0.00 0.00 61 1014.5
20200531061704 70 345 6.1 13.9 0.00 0.00 0.00 61 1014.4
20200531061204 70 331 7.0 12.2 0.00 0.00 0.00 60 1014.3
20200531060704 70 351 7.8 15.6 0.00 0.00 0.00 59 1014.3
20200531060204 70 0 8.7 13.9 0.00 0.00 0.00 59 1014.4
20200531055705 70 326 7.8 13.0 0.00 0.00 0.00 61 1014.3
20200531055205 70 349 2.6 7.0 0.00 0.00 0.00 63 1014.3
20200531054705 70 7 1.7 13.0 0.00 0.00 0.00 62 1014.3
20200531054204 70 353 7.8 17.4 0.00 0.00 0.00 62 1014.2
20200531053704 71 17 4.3 8.7 0.00 0.00 0.00 61 1014.2
20200531053204 71 336 5.2 13.0 0.00 0.00 0.00 61 1014.2
20200531052704 71 348 5.2 13.0 0.00 0.00 0.00 62 1014.1
20200531052204 71 345 4.3 12.2 0.00 0.00 0.00 65 1014.1
20200531051704 71 350 1.7 8.7 0.00 0.00 0.00 65 1014.1
20200531051204 71 333 1.7 6.1 0.00 0.00 0.00 65 1014.0
20200531050705 71 338 2.6 7.8 0.00 0.00 0.00 64 1014.0
20200531050204 71 338 2.6 10.4 0.00 0.00 0.00 64 1013.9
20200531045704 71 0 2.6 7.8 0.00 0.00 0.00 64 1013.8
20200531045204 71 324 4.3 7.0 0.00 0.00 0.00 64 1013.8
20200531044704 71 332 2.6 7.8 0.00 0.00 0.00 65 1013.7
20200531044205 71 353 4.3 10.4 0.00 0.00 0.00 64 1013.7
20200531043704 71 339 4.3 8.7 0.00 0.00 0.00 65 1013.7
20200531043204 71 326 6.1 11.3 0.00 0.00 0.00 64 1013.7
20200531042704 71 341 5.2 10.4 0.00 0.00 0.00 65 1013.6
20200531042205 71 327 4.3 10.4 0.00 0.00 0.00 68 1013.6
20200531041704 70 344 3.5 7.8 0.00 0.00 0.00 70 1013.5
20200531041204 70 337 2.6 10.4 0.00 0.00 0.00 71 1013.6
20200531040704 69 321 2.6 10.4 0.00 0.00 0.00 73 1013.6
20200531040204 69 330 3.5 10.4 0.00 0.00 0.00 74 1013.6
20200531035705 68 330 2.6 11.3 0.00 0.00 0.00 76 1013.5
20200531035205 68 329 2.6 6.1 0.00 0.00 0.00 77 1013.5
20200531034705 67 346 1.7 5.2 0.00 0.00 0.00 78 1013.6
20200531034204 66 318 4.3 7.8 0.00 0.00 0.00 81 1013.6
20200531033704 66 322 1.7 5.2 0.00 0.00 0.00 84 1013.6
20200531033205 66 330 1.7 2.6 0.00 0.00 0.00 86 1013.6
20200531032704 66 316 0.9 2.6 0.00 0.00 0.00 87 1013.6
20200531032204 66 284 0.0 2.6 0.00 0.00 0.00 88 1013.6
20200531031704 66 284 0.0 0.9 0.00 0.00 0.00 88 1013.7
20200531031205 66 285 0.0 0.9 0.00 0.00 0.00 88 1013.7
20200531030705 66 321 0.9 2.6 0.00 0.00 0.00 87 1013.7
20200531030205 66 16 0.0 1.7 0.00 0.00 0.00 87 1013.7
20200531025704 66 16 0.0 2.6 0.00 0.00 0.00 88 1013.7
20200531025204 66 35 0.9 1.7 0.00 0.00 0.00 87 1013.6
20200531024704 66 37 0.9 2.6 0.00 0.00 0.00 87 1013.6
20200531024204 66 52 0.9 2.6 0.00 0.00 0.00 87 1013.6
20200531023704 67 63 0.0 0.0 0.00 0.00 0.00 86 1013.5
20200531023204 67 63 0.0 0.0 0.00 0.00 0.00 86 1013.4
20200531022704 67 63 0.0 0.0 0.00 0.00 0.00 85 1013.5
20200531022204 67 63 0.0 0.0 0.00 0.00 0.00 84 1013.4
20200531021705 67 63 0.0 0.0 0.00 0.00 0.00 84 1013.4
20200531021205 67 63 0.0 0.0 0.00 0.00 0.00 83 1013.3
20200531020705 67 63 0.0 0.0 0.00 0.00 0.00 82 1013.2
20200531020204 67 63 0.0 0.0 0.00 0.00 0.00 82 1013.3
20200531015704 67 63 0.0 0.0 0.00 0.00 0.00 81 1013.1
20200531015204 68 63 0.0 0.0 0.00 0.00 0.00 79 1013.1
20200531014705 68 63 0.0 0.0 0.00 0.00 0.00 77 1013.0
20200531014205 68 63 0.0 0.0 0.00 0.00 0.00 76 1013.0
20200531013705 68 63 0.0 0.0 0.00 0.00 0.00 77 1012.9
20200531013204 69 63 0.0 0.0 0.00 0.00 0.00 76 1012.9
20200531012705 69 63 0.0 0.0 0.00 0.00 0.00 76 1012.8
20200531012205 69 63 0.0 0.0 0.00 0.00 0.00 75 1012.7
20200531011704 70 63 0.0 0.0 0.00 0.00 0.00 72 1012.7
20200531011205 70 63 0.0 0.0 0.00 0.00 0.00 72 1012.7
20200531010705 70 63 0.0 0.0 0.00 0.00 0.00 72 1012.7
20200531010204 71 63 0.0 0.0 0.00 0.00 0.00 70 1012.6
20200531005704 71 63 0.0 0.0 0.00 0.00 0.00 70 1012.6
20200531005205 71 63 0.0 0.0 0.00 0.00 0.00 68 1012.6
20200531004705 72 63 0.0 0.0 0.00 0.00 0.00 68 1012.6
20200531004204 72 63 0.0 0.0 0.00 0.00 0.00 67 1012.4
20200531003704 73 63 0.0 0.0 0.00 0.00 0.00 66 1012.3
20200531003204 73 63 0.0 0.0 0.00 0.00 0.00 63 1012.3
20200531002704 74 63 0.0 0.0 0.00 0.00 0.00 61 1012.2
20200531002205 74 63 0.0 0.0 0.00 0.00 0.00 61 1012.2
20200531001705 74 63 0.0 0.0 0.00 0.00 0.00 61 1012.2
20200531001205 75 63 0.0 0.0 0.00 0.00 0.00 61 1012.2
20200531000705 75 63 0.0 0.9 0.00 0.00 0.00 60 1012.3
20200531000204 76 63 0.0 0.0 0.00 0.00 0.00 57 1012.1
20200530235705 76 63 0.0 0.0 0.00 0.00 0.00 55 1012.2
20200530235205 76 63 0.0 0.0 0.00 0.00 0.00 55 1012.1
20200530234705 77 63 0.0 0.9 0.00 0.00 0.00 53 1012.1
20200530234204 77 65 0.0 0.0 0.00 0.00 0.00 50 1012.0
20200530233704 78 64 0.0 0.0 0.00 0.00 0.00 50 1012.1
20200530233204 78 64 0.0 0.0 0.00 0.00 0.00 49 1012.0
20200530232705 78 64 0.0 0.0 0.00 0.00 0.00 47 1012.0
20200530232205 78 64 0.0 0.0 0.00 0.00 0.00 46 1011.9
20200530231704 78 64 0.0 0.9 0.00 0.00 0.00 45 1011.9
20200530231204 79 64 0.0 0.9 0.00 0.00 0.00 44 1011.9
20200530230705 79 61 0.9 1.7 0.00 0.00 0.00 44 1012.0
20200530230205 79 58 1.7 2.6 0.00 0.00 0.00 43 1011.9
20200530225704 80 58 0.9 2.6 0.00 0.00 0.00 42 1011.8
20200530225205 80 58 1.7 2.6 0.00 0.00 0.00 41 1011.7
20200530224705 80 58 0.9 2.6 0.00 0.00 0.00 39 1011.7
20200530224205 81 58 0.9 1.7 0.00 0.00 0.00 38 1011.7
20200530223704 81 58 0.0 1.7 0.00 0.00 0.00 37 1011.7
20200530223204 82 58 0.9 2.6 0.00 0.00 0.00 35 1011.6
20200530222704 82 60 0.9 2.6 0.00 0.00 0.00 38 1011.6
20200530222205 82 60 0.9 1.7 0.00 0.00 0.00 36 1011.6
20200530221705 83 60 0.9 2.6 0.00 0.00 0.00 37 1011.6
20200530221204 83 60 1.7 2.6 0.00 0.00 0.00 38 1011.6
20200530220705 83 55 2.6 4.3 0.00 0.00 0.00 36 1011.6
20200530220204 83 31 0.0 2.6 0.00 0.00 0.00 36 1011.6
20200530215704 83 35 2.6 4.3 0.00 0.00 0.00 37 1011.6
20200530215204 83 29 1.7 2.6 0.00 0.00 0.00 35 1011.7
20200530214705 83 62 2.6 5.2 0.00 0.00 0.00 36 1011.6
20200530214205 83 47 1.7 4.3 0.00 0.00 0.00 39 1011.6
20200530213705 83 37 1.7 5.2 0.00 0.00 0.00 38 1011.7
20200530213205 83 14 2.6 5.2 0.00 0.00 0.00 41 1011.7
20200530212704 83 44 4.3 6.1 0.00 0.00 0.00 42 1011.7
20200530212204 83 49 4.3 5.2 0.00 0.00 0.00 38 1011.8
20200530211704 83 31 2.6 5.2 0.00 0.00 0.00 39 1011.9
20200530211204 83 26 3.5 5.2 0.00 0.00 0.00 44 1011.9
20200530210704 83 79 2.6 4.3 0.00 0.00 0.00 40 1012.0
20200530210205 83 53 1.7 5.2 0.00 0.00 0.00 39 1012.2
20200530205704 83 56 4.3 5.2 0.00 0.00 0.00 44 1012.2
20200530205205 83 52 1.7 5.2 0.00 0.00 0.00 41 1012.2
20200530204704 82 35 1.7 2.6 0.00 0.00 0.00 38 1012.3
20200530204205 83 35 1.7 4.3 0.00 0.00 0.00 39 1012.3
20200530203705 83 30 0.9 5.2 0.00 0.00 0.00 42 1012.2
20200530203204 82 34 1.7 5.2 0.00 0.00 0.00 44 1012.3
20200530202704 82 31 1.7 5.2 0.00 0.00 0.00 41 1012.3
20200530202204 82 43 3.5 7.8 0.00 0.00 0.00 46 1012.2
20200530201704 82 49 3.5 6.1 0.00 0.00 0.00 43 1012.2
20200530201204 82 35 4.3 5.2 0.00 0.00 0.00 44 1012.2
20200530200704 82 52 2.6 4.3 0.00 0.00 0.00 43 1012.2
20200530200205 82 353 4.3 7.8 0.00 0.00 0.00 43 1012.2
20200530195704 82 19 4.3 7.8 0.00 0.00 0.00 45 1012.2
20200530195204 82 51 3.5 7.8 0.00 0.00 0.00 46 1012.2
20200530194705 82 56 5.2 8.7 0.00 0.00 0.00 45 1012.3
20200530194205 82 46 4.3 7.8 0.00 0.00 0.00 44 1012.2
20200530193704 82 55 5.2 8.7 0.00 0.00 0.00 47 1012.2
20200530193204 82 52 6.1 8.7 0.00 0.00 0.00 48 1012.3
20200530192704 82 53 5.2 8.7 0.00 0.00 0.00 49 1012.3
20200530192204 81 49 6.1 10.4 0.00 0.00 0.00 46 1012.4
20200530191705 81 48 6.1 8.7 0.00 0.00 0.00 45 1012.4
20200530191204 81 329 1.7 10.4 0.00 0.00 0.00 44 1012.4
20200530190705 81 12 5.2 7.8 0.00 0.00 0.00 50 1012.4
20200530190204 81 46 5.2 11.3 0.00 0.00 0.00 47 1012.5
20200530185704 81 49 6.1 10.4 0.00 0.00 0.00 50 1012.5
20200530185205 81 53 2.6 11.3 0.00 0.00 0.00 47 1012.6
20200530184713 81 42 2.6 8.7 0.00 0.00 0.00 48 1012.5
20200530184204 81 45 3.5 10.4 0.00 0.00 0.00 48 1012.7
20200530183704 81 24 4.3 7.8 0.00 0.00 0.00 48 1012.6
20200530183204 81 22 4.3 8.7 0.00 0.00 0.00 49 1012.7
20200530182704 81 30 4.3 7.8 0.00 0.00 0.00 49 1012.6
20200530182204 80 36 4.3 7.8 0.00 0.00 0.00 51 1012.7
20200530181704 80 33 5.2 8.7 0.00 0.00 0.00 52 1012.7
20200530181205 80 3 5.2 7.8 0.00 0.00 0.00 53 1012.9
20200530180705 80 54 4.3 7.8 0.00 0.00 0.00 50 1013.0
20200530180204 79 49 2.6 7.0 0.00 0.00 0.00 52 1013.0
20200530175704 79 35 6.1 11.3 0.00 0.00 0.00 51 1012.9
20200530175205 79 46 4.3 7.8 0.00 0.00 0.00 49 1013.0
20200530174705 79 356 4.3 7.8 0.00 0.00 0.00 49 1013.0
20200530174204 79 53 2.6 7.0 0.00 0.00 0.00 51 1013.1
20200530173704 79 44 4.3 7.8 0.00 0.00 0.00 50 1013.1
20200530173204 79 18 5.2 10.4 0.00 0.00 0.00 55 1013.1
20200530172704 79 56 5.2 8.7 0.00 0.00 0.00 52 1013.1
20200530172204 80 41 5.2 13.9 0.00 0.00 0.00 54 1013.1
20200530171704 80 48 7.8 12.2 0.00 0.00 0.00 58 1013.1
20200530171204 80 39 4.3 10.4 0.00 0.00 0.00 58 1013.1
20200530170704 79 29 4.3 8.7 0.00 0.00 0.00 58 1013.2
20200530170205 79 354 5.2 10.4 0.00 0.00 0.00 60 1013.2
20200530165704 78 22 5.2 8.7 0.00 0.00 0.00 61 1013.2
20200530165204 78 14 4.3 10.4 0.00 0.00 0.00 59 1013.2
20200530164704 78 16 4.3 10.4 0.00 0.00 0.00 61 1013.1
20200530164204 78 353 5.2 10.4 0.00 0.00 0.00 62 1013.1
20200530163705 78 34 6.1 11.3 0.00 0.00 0.00 61 1013.2
20200530163204 77 14 5.2 10.4 0.00 0.00 0.00 62 1013.0
20200530162704 77 2 5.2 10.4 0.00 0.00 0.00 61 1013.1
20200530162205 78 45 7.0 13.0 0.00 0.00 0.00 66 1013.0
20200530161704 78 24 4.3 10.4 0.00 0.00 0.00 66 1013.0
20200530161204 78 28 5.2 8.7 0.00 0.00 0.00 66 1013.1
20200530160704 78 41 6.1 11.3 0.00 0.00 0.00 70 1013.0
20200530160204 78 42 8.7 13.0 0.00 0.00 0.00 69 1013.1
20200530155704 77 29 7.0 10.4 0.00 0.00 0.00 72 1013.2
20200530155205 77 25 4.3 7.8 0.00 0.00 0.00 69 1013.2
20200530154705 78 324 4.3 7.0 0.00 0.00 0.00 70 1013.3
20200530154204 78 332 3.5 7.0 0.00 0.00 0.00 68 1013.3
20200530153704 78 21 1.7 7.8 0.00 0.00 0.00 68 1013.3
20200530153204 78 343 4.3 7.8 0.00 0.00 0.00 67 1013.4
20200530152705 78 324 2.6 7.0 0.00 0.00 0.00 67 1013.4
20200530152205 78 358 1.7 7.8 0.00 0.00 0.00 68 1013.3
20200530151704 78 358 3.5 7.0 0.00 0.00 0.00 67 1013.4
20200530151204 78 305 1.7 7.0 0.00 0.00 0.00 67 1013.3
20200530150704 78 304 4.3 10.4 0.00 0.00 0.00 68 1013.4
20200530150204 78 332 2.6 7.0 0.00 0.00 0.00 67 1013.4
20200530145704 77 258 2.6 8.7 0.00 0.00 0.00 70 1013.5
20200530145204 77 8 3.5 8.7 0.00 0.00 0.00 71 1013.5
20200530144705 77 320 4.3 8.7 0.00 0.00 0.00 70 1013.5
20200530144204 77 292 3.5 7.8 0.00 0.00 0.00 72 1013.5
20200530143704 76 308 2.6 10.4 0.00 0.00 0.00 71 1013.5
20200530143204 76 266 0.9 7.0 0.00 0.00 0.00 73 1013.5
20200530142704 76 328 5.2 10.4 0.00 0.00 0.00 73 1013.5
20200530142204 76 337 3.5 8.7 0.00 0.00 0.00 71 1013.5
20200530141704 76 323 6.1 10.4 0.00 0.00 0.00 71 1013.6
20200530141204 76 1 5.2 7.8 0.00 0.00 0.00 75 1013.5
20200530140705 76 317 4.3 7.0 0.00 0.00 0.00 75 1013.6
20200530140204 75 296 4.3 10.4 0.00 0.00 0.00 77 1013.7
20200530135704 75 347 2.6 8.7 0.00 0.00 0.00 76 1013.7
20200530135205 75 301 4.3 10.4 0.00 0.00 0.00 77 1013.7
20200530134704 75 312 2.6 10.4 0.00 0.00 0.00 77 1013.6
20200530134204 74 274 3.5 6.1 0.00 0.00 0.00 78 1013.6
20200530133704 74 329 5.2 11.3 0.00 0.00 0.00 76 1013.6
20200530133204 74 281 4.3 8.7 0.00 0.00 0.00 78 1013.6
20200530132705 74 311 2.6 7.0 0.00 0.00 0.00 81 1013.7
20200530132204 74 317 4.3 10.4 0.00 0.00 0.00 78 1013.7
20200530131704 74 337 5.2 7.8 0.00 0.00 0.00 81 1013.7
20200530131205 73 342 5.2 7.8 0.00 0.00 0.00 81 1013.7
20200530130704 73 312 1.7 10.4 0.00 0.00 0.00 85 1013.8
20200530130204 73 328 1.7 5.2 0.00 0.00 0.00 84 1013.7
20200530125704 73 299 0.9 4.3 0.00 0.00 0.00 84 1013.7
20200530125204 73 344 1.7 4.3 0.00 0.00 0.00 84 1013.8
20200530124705 73 330 0.9 2.6 0.00 0.00 0.00 83 1013.8
20200530124205 73 311 0.9 2.6 0.00 0.00 0.00 83 1013.8
20200530123704 73 317 0.9 2.6 0.00 0.00 0.00 85 1013.7
20200530123204 73 312 1.7 5.2 0.00 0.00 0.00 84 1013.7
20200530122704 73 169 0.9 4.3 0.00 0.00 0.00 86 1013.7
20200530122204 72 224 0.9 4.3 0.00 0.00 0.00 86 1013.6
20200530121704 72 317 0.9 5.2 0.00 0.00 0.00 87 1013.6
20200530121205 72 288 2.6 7.8 0.00 0.00 0.00 87 1013.5
20200530120705 71 310 1.7 7.0 0.00 0.00 0.00 87 1013.5
20200530120205 71 295 0.9 5.2 0.00 0.01 0.00 89 1013.4
20200530115704 71 301 1.7 6.1 0.00 0.01 0.00 90 1013.3
20200530115204 70 312 1.7 5.2 0.00 0.01 0.00 91 1013.3
20200530114704 70 296 0.9 2.6 0.00 0.01 0.00 92 1013.3
20200530114204 69 300 0.9 2.6 0.00 0.01 0.00 93 1013.1
20200530113704 69 270 0.9 2.6 0.00 0.01 0.00 93 1013.2
20200530113205 69 252 0.9 2.6 0.00 0.01 0.00 94 1013.2
20200530112705 69 248 0.9 2.6 0.00 0.01 0.00 94 1013.1
20200530112205 68 257 0.0 2.6 0.00 0.01 0.00 95 1013.1
20200530111704 68 237 0.9 2.6 0.00 0.01 0.00 95 1013.0
20200530111204 68 247 0.9 2.6 0.00 0.01 0.00 95 1013.1
20200530110704 68 247 0.0 2.6 0.00 0.01 0.00 95 1013.1
20200530110204 68 252 0.9 2.6 0.00 0.01 0.00 95 1013.0
20200530105704 67 239 0.9 1.7 0.00 0.01 0.00 95 1013.1
20200530105205 67 239 0.0 2.6 0.00 0.01 0.00 95 1013.0
20200530104704 67 239 1.7 2.6 0.00 0.01 0.00 95 1013.0
20200530104204 67 240 0.0 0.0 0.00 0.01 0.00 95 1013.0
20200530103704 67 240 0.0 0.0 0.00 0.01 0.00 95 1013.0
20200530103204 68 235 0.0 0.9 0.00 0.01 0.00 95 1013.1
20200530102704 68 225 0.0 0.9 0.00 0.01 0.00 95 1013.1
20200530102204 68 225 0.0 0.0 0.00 0.01 0.00 95 1013.0
20200530101704 68 225 0.0 0.0 0.00 0.01 0.00 95 1013.0
20200530101204 68 225 0.0 0.0 0.00 0.01 0.00 95 1012.9
20200530100704 68 225 0.0 0.0 0.00 0.01 0.00 95 1012.9
20200530100205 68 225 0.0 0.0 0.00 0.01 0.00 95 1012.8
20200530095704 68 220 0.0 0.0 0.00 0.01 0.00 95 1012.8
20200530095204 68 219 0.0 0.0 0.00 0.01 0.00 95 1012.8
20200530094704 69 218 0.0 0.0 0.00 0.01 0.00 95 1012.6
20200530094204 69 218 0.0 0.0 0.00 0.01 0.00 95 1012.5
20200530093704 69 218 0.0 0.0 0.00 0.01 0.00 95 1012.4
20200530093205 69 218 0.0 0.0 0.00 0.01 0.00 95 1012.4
20200530092705 69 218 0.0 0.0 0.00 0.01 0.00 96 1012.4
20200530092204 69 217 0.0 0.0 0.00 0.01 0.00 96 1012.4
20200530091704 69 217 0.0 0.0 0.00 0.01 0.00 96 1012.3
20200530091204 69 217 0.0 0.0 0.00 0.01 0.00 96 1012.3
20200530090704 69 217 0.0 0.0 0.00 0.01 0.00 95 1012.3
20200530090204 69 217 0.0 0.0 0.00 0.01 0.00 95 1012.2
20200530085704 69 217 0.0 0.0 0.00 0.01 0.00 95 1012.1
20200530085204 69 217 0.0 0.0 0.00 0.01 0.00 95 1012.1
20200530084704 69 217 0.0 0.0 0.00 0.01 0.00 95 1012.0
20200530084205 69 217 0.0 0.0 0.00 0.01 0.00 95 1012.0
20200530083704 69 216 0.0 0.0 0.00 0.01 0.00 95 1012.1
20200530083205 69 216 0.0 0.0 0.00 0.01 0.00 95 1012.1
20200530082704 69 216 0.0 0.0 0.00 0.01 0.00 95 1012.1
20200530082204 69 216 0.0 0.0 0.00 0.01 0.00 94 1012.0